Flag for Ukraine Weather past 2 weeks in Luhansk, Ukraine

Now
43 °F

Fog.


Feels Like: 41 °F
Forecast: 30 / 36 °F
Wind: 3 mph from Southwest

Location: Rostov-Na-Donu

Current Time: Dec 21, 2014 at 2:03:44 PM

Latest Report: Dec 21, 2014 at 1:30 PM


Visibility: 3 mi

Pressure: 29.89 "Hg

Humidity: 93%

Dew point: 41 °F

Location of LuhanskLocation

Historic Weather in Luhansk — Graph

°F

Luhansk temperature yesterday

Maximum temperature yesterday: 46 °F (at 3:30 PM)
Minimum temperature yesterday: 34 °F (at 5:30 AM)
Average temperature yesterday: 40 °F

Past Weeks' High & Low Weather Summary

 TemperatureHumidityPressure
High50 °F (Dec 12, 12:30 PM)100% (Dec 6, 8:30 PM)30.54 "Hg (Dec 6, 8:30 PM)
Low23 °F (Dec 6, 8:30 PM)75% (Dec 13, 2:00 PM)29.89 "Hg (Dec 21, 1:00 AM)
Average34 °F97%30.18 "Hg
* Reported Dec 6 1:00 PM — Dec 21 1:00 PM, Luhansk, Weather by CustomWeather, © 2014

Note: Actual official high and low records may vary slightly from our data, if they occured in-between our weather recording intervals... More about our weather records

Advertising

Luhansk weather history for previous 24 hours

 ConditionsComfort  
Time TempWeatherWind HumidityBarometerVisibility
1:00 PM
Dec 21
43 °FFog.3 mph93%29.92 "Hg2 mi
12:30 PM41 °FFog.1 mph100%29.92 "Hg1 mi
12:00 PM41 °FFog.3 mph100%29.92 "Hg1 mi
11:30 AM43 °FFog.3 mph93%29.92 "Hg1 mi
11:00 AM41 °FFog.1 mph100%29.95 "Hg1 mi
10:30 AM41 °FFog.1 mph100%29.95 "Hg1 mi
10:00 AM41 °FFog.1 mph100%29.95 "Hg1 mi
9:30 AM41 °FFog.3 mph100%29.95 "Hg1 mi
9:00 AM41 °FFog.3 mph100%29.95 "Hg1 mi
8:30 AM41 °FFog.3 mph100%29.95 "Hg1 mi
8:00 AM41 °FFog.6 mph100%29.95 "Hg1 mi
7:30 AM41 °FFog.3 mph100%29.92 "Hg1 mi
7:00 AM41 °FDrizzle. Fog.6 mph100%29.92 "Hg1 mi
6:30 AM41 °FDrizzle. Fog.6 mph100%29.92 "Hg1 mi
6:00 AM41 °FDrizzle. Fog.6 mph100%29.92 "Hg1 mi
5:30 AM41 °FDrizzle. Fog.6 mph100%29.92 "Hg1 mi
5:00 AM41 °FFog.6 mph100%29.92 "Hg1 mi
4:30 AM41 °FFog.8 mph100%29.92 "Hg1 mi
4:00 AM43 °FFog.13 mph93%29.92 "Hg1 mi
3:30 AM43 °FSprinkles. Fog.10 mph100%29.92 "Hg1 mi
3:00 AM45 °FSprinkles. Fog.13 mph93%29.92 "Hg2 mi
2:30 AM46 °FSprinkles. Fog.13 mph93%29.92 "Hg1 mi
2:00 AM46 °FSprinkles. Fog.15 mph93%29.89 "Hg2 mi
1:30 AM46 °FSprinkles. Fog.17 mph93%29.89 "Hg2 mi
1:00 AM46 °FSprinkles. Fog.15 mph93%29.89 "Hg2 mi
12:30 AM46 °FSprinkles. Fog.15 mph93%29.92 "Hg2 mi
12:00 AM46 °FSprinkles. Fog.17 mph93%29.92 "Hg2 mi
11:30 PM
Dec 20
46 °FSprinkles. Partly cloudy.17 mph93%29.92 "Hg3 mi
11:00 PM46 °FPartly cloudy.15 mph87%29.92 "Hg5 mi
10:30 PM46 °FPartly cloudy.15 mph87%29.92 "Hg5 mi
10:00 PM46 °FPartly cloudy.15 mph87%29.92 "Hg5 mi
9:30 PM46 °FPartly cloudy.17 mph87%29.92 "Hg4 mi
9:00 PM46 °FPartly cloudy.17 mph87%29.92 "Hg4 mi
8:30 PM46 °FPartly cloudy.15 mph87%29.95 "Hg4 mi
8:00 PM46 °FPartly cloudy.15 mph87%29.95 "Hg4 mi
7:30 PM46 °FPartly cloudy.15 mph87%29.95 "Hg4 mi
7:00 PM45 °FPartly cloudy.15 mph93%29.95 "Hg5 mi
6:30 PM45 °FPartly cloudy.13 mph93%29.95 "Hg5 mi
6:00 PM45 °FPartly cloudy.13 mph93%29.95 "Hg5 mi
5:30 PM45 °FBroken clouds.13 mph93%29.95 "Hg4 mi
5:00 PM45 °FBroken clouds.13 mph93%29.95 "HgN/A
4:30 PM45 °FBroken clouds.13 mph93%29.95 "HgN/A
4:00 PM46 °FCloudy.15 mph87%29.98 "HgN/A
3:30 PM46 °FBroken clouds.13 mph87%29.98 "HgN/A
3:00 PM45 °FPartly sunny.10 mph87%29.98 "HgN/A
2:30 PM45 °FPartly sunny.15 mph87%29.98 "HgN/A
2:00 PM45 °FBroken clouds.13 mph81%30.01 "HgN/A
Weather by CustomWeather, © 2014

See weather overviewHow to use our weather pages